1501614001.18,17153,26.63,75002.0,9.83,-16.27,-16.89,0,*7A
1501614002.38,17154,26.63,75004.5,9.83,-15.99,-16.75,0,*78
1501614003.58,17155,26.63,75006.3,9.83,-15.99,-16.75,0,*79
1501614004.83,17156,26.63,75004.8,9.83,-15.85,-16.69,0,*7A
1501614006.08,17157,26.63,74998.5,9.83,-15.81,-16.69,0,*7F
1501614007.27,17158,26.63,74996.5,9.83,-15.95,-16.89,0,*7B
1501614008.53,17159,26.63,75002.5,9.81,-16.13,-17.35,0,*73
1501614009.79,17160,26.63,74996.5,9.83,-16.13,-17.45,0,*7C
1501614011.04,17161,26.63,75002.3,9.83,-16.17,-17.45,0,*79
1501614012.29,17162,26.63,75002.5,9.83,-16.27,-17.59,0,*74
1501614013.54,17163,26.63,75002.0,9.83,-16.23,-17.63,0,*78
1501614014.76,17164,26.63,75000.8,9.83,-16.45,-17.63,0,*7F
1501614015.97,17165,26.63,75000.3,9.83,-16.41,-17.73,0,*7B
1501614017.19,17166,26.63,75000.5,9.83,-16.41,-17.63,0,*79
1501614018.47,17167,26.63,74998.0,9.85,-16.17,-17.45,0,*79
1501614019.73,17168,26.63,75000.8,9.81,-16.17,-17.35,0,*75
1501614020.95,17169,26.63,75000.3,9.83,-16.45,-17.59,0,*7B
1501614022.18,17170,26.63,75002.0,9.83,-16.75,-17.79,0,*72
1501614023.38,17171,26.63,74996.0,9.83,-16.75,-17.73,0,*79
1501614024.63,17172,26.63,75000.8,9.81,-16.59,-17.55,0,*72
1501614025.9,17173,26.63,74996.8,9.81,-16.51,-17.55,0,*7B
1501614027.11,17174,26.63,75000.8,9.83,-16.45,-17.35,0,*7D
1501614028.36,17175,26.63,75000.8,9.81,-16.45,-17.41,0,*7D
1501614029.59,17176,26.63,74992.8,9.83,-16.75,-17.59,0,*76
1501614030.84,17177,26.63,75002.0,9.81,-16.79,-17.63,0,*70
1501614032.06,17178,26.63,75002.5,9.81,-16.75,-17.49,0,*7B
1501614033.29,17179,26.63,75004.3,9.83,-16.75,-17.59,0,*79
1501614034.51,17180,26.63,74996.0,9.83,-16.69,-17.49,0,*73
1501614035.79,17181,26.63,75006.8,9.81,-16.65,-17.41,0,*74
1501614037.02,17182,26.63,75002.3,9.83,-16.59,-17.45,0,*7E
1501614038.27,17183,26.63,75004.8,9.81,-16.65,-17.49,0,*7E
1501614039.5,17184,26.63,75004.8,9.83,-16.83,-17.59,0,*72
1501614040.73,17185,26.63,75004.0,9.83,-16.55,-17.45,0,*75
1501614041.98,17186,26.63,75008.5,9.83,-16.69,-17.45,0,*79
1501614043.2,17187,26.63,75006.0,9.81,-16.79,-17.49,0,*77
1501614044.45,17188,26.63,75006.0,9.83,-16.69,-17.45,0,*77
1501614045.67,17189,26.63,75002.8,9.83,-16.55,-17.35,0,*7E
1501614046.94,17190,26.63,75004.8,9.81,-16.51,-17.25,0,*71
1501614048.19,17191,26.63,75002.5,9.81,-16.65,-17.35,0,*76
1501614049.42,17192,26.63,75002.5,9.83,-16.89,-17.59,0,*7F
1501614050.62,17193,26.63,75008.5,9.83,-16.75,-17.49,0,*7C
1501614051.87,17194,26.63,75004.8,9.81,-16.79,-17.55,0,*78
1501614053.12,17195,26.63,75006.5,9.81,-16.79,-17.55,0,*79
1501614054.37,17196,26.63,75002.5,9.81,-16.79,-17.55,0,*7A
1501614055.59,17197,26.63,75006.0,9.81,-16.75,-17.49,0,*7A
1501614056.84,17198,26.63,75006.0,9.81,-16.79,-17.55,0,*74
1501614058.05,17199,26.63,75002.5,9.83,-16.59,-17.35,0,*73
1501614059.3,17200,26.63,75008.5,9.81,-16.51,-17.35,0,*7A
1501614060.57,17201,26.63,75014.8,9.81,-16.51,-17.25,0,*7A
1501614061.84,17202,26.63,75006.8,9.81,-16.51,-17.25,0,*79
1501614063.09,17203,26.63,74998.5,9.81,-16.45,-17.25,0,*7D
1501614064.34,17204,26.63,75002.3,9.83,-16.27,-17.21,0,*78
1501614065.57,17205,26.63,74996.5,9.81,-16.37,-17.35,0,*7F
1501614066.84,17206,26.63,74994.5,9.81,-16.31,-17.25,0,*7B
1501614068.11,17207,26.63,74996.0,9.81,-16.23,-17.25,0,*79
1501614069.38,17208,26.63,74992.5,9.81,-16.17,-17.11,0,*76
1501614070.67,17209,26.63,74992.5,9.81,-16.13,-17.07,0,*74
1501614071.94,17210,26.63,74992.5,9.81,-15.89,-17.03,0,*78
1501614073.19,17211,26.63,74996.8,9.81,-15.85,-16.93,0,*7D
1501614074.44,17212,26.63,74992.5,9.83,-15.81,-17.03,0,*70
1501614075.72,17213,26.63,74998.5,9.81,-15.85,-17.07,0,*73
1501614076.99,17214,26.63,74996.5,9.81,-15.85,-17.21,0,*70
1501614078.27,17215,26.63,74998.0,9.81,-15.85,-17.11,0,*72
1501614079.55,17216,26.63,74998.0,9.81,-15.89,-17.03,0,*7E
1501614080.8,17217,26.63,74998.8,9.81,-15.75,-17.07,0,*78
1501614082.01,17218,26.63,75000.5,9.83,-15.71,-16.83,0,*7C
1501614083.22,17219,26.63,74998.0,9.81,-15.71,-16.93,0,*7E
1501614084.44,17220,26.63,74992.0,9.81,-15.63,-16.93,0,*77
1501614085.69,17221,26.63,74996.3,9.81,-15.71,-17.03,0,*7D
1501614086.89,17222,26.63,75002.0,9.83,-15.53,-16.89,0,*7F
1501614088.11,17223,26.63,74994.8,9.81,-15.49,-16.93,0,*7C
1501614089.3,17224,26.63,75000.0,9.83,-15.49,-16.93,0,*79
1501614090.52,17225,26.63,75000.3,9.83,-15.53,-17.17,0,*7E
1501614091.74,17226,26.63,75002.0,9.83,-15.57,-17.31,0,*7D
1501614092.99,17227,26.63,74996.3,9.81,-15.71,-17.21,0,*7B
1501614094.24,17228,26.63,75002.3,9.83,-15.43,-17.17,0,*72
1501614095.47,17229,26.63,75002.0,9.81,-15.63,-17.35,0,*73
1501614096.72,17230,26.63,75002.5,9.81,-15.49,-17.11,0,*75
1501614097.96,17231,26.63,74994.5,9.81,-15.49,-17.21,0,*77
1501614099.24,17232,26.63,74996.3,9.81,-15.43,-17.03,0,*7E
1501614100.47,17233,26.63,74992.3,9.83,-15.39,-16.83,0,*79
1501614101.69,17234,26.63,74994.0,9.83,-15.39,-16.83,0,*7E
1501614102.92,17235,26.63,74996.3,9.83,-15.25,-16.69,0,*76
1501614104.14,17236,26.63,74994.5,9.83,-15.29,-16.69,0,*79
1501614105.37,17237,26.63,74998.0,9.83,-15.29,-16.69,0,*78
1501614106.62,17238,26.63,75004.8,9.81,-15.35,-16.75,0,*75
1501614107.87,17239,26.63,75002.3,9.81,-15.15,-16.51,0,*70
1501614109.06,17240,26.63,74998.5,9.83,-15.11,-16.55,0,*7C
1501614110.28,17241,26.63,75000.0,9.83,-14.97,-16.55,0,*72
1501614111.54,17242,26.63,74998.3,9.83,-14.51,-16.27,0,*7E
1501614112.74,17243,26.63,74998.5,9.83,-14.19,-15.99,0,*75
1501614113.97,17244,26.63,74994.0,9.83,-13.69,-15.85,0,*7F
1501614115.2,17245,26.63,74994.3,9.81,-13.55,-15.75,0,*7C
1501614116.4,17246,26.63,74990.0,9.83,-13.23,-15.67,0,*7F
1501614117.61,17247,26.63,74998.5,9.83,-12.93,-15.53,0,*73
1501614118.86,17248,26.63,74996.8,9.83,-12.65,-15.39,0,*79
1501614120.12,17249,26.63,74994.0,9.83,-12.11,-14.93,0,*7A
1501614121.36,17250,26.63,74986.3,9.83,-11.73,-14.83,0,*74
1501614122.56,17251,26.63,74986.3,9.83,-11.11,-14.37,0,*7E
1501614123.79,17252,26.63,74980.3,9.83,-10.75,-14.37,0,*7E
1501614125.01,17253,26.63,74996.3,9.85,-10.31,-14.29,0,*76
1501614126.25,17254,26.63,74996.5,9.85,-9.79,-14.05,0,*4B
1501614127.47,17255,26.56,74992.5,9.85,-9.31,-13.65,0,*47
1501614128.73,17256,26.63,74990.8,9.85,-9.45,-13.79,0,*4A
1501614129.94,17257,26.63,74986.5,9.85,-9.31,-13.51,0,*42
1501614131.19,17258,26.63,75002.0,9.85,-9.11,-13.23,0,*4A
1501614132.41,17259,26.63,75004.3,9.85,-9.19,-13.11,0,*42
1501614133.63,17260,26.63,75006.5,9.87,-8.75,-12.75,0,*42
1501614134.83,17261,26.63,75004.0,9.87,-8.75,-12.47,0,*42
1501614136.03,17262,26.63,75004.8,9.87,-8.85,-12.39,0,*47
1501614137.28,17263,26.56,74996.3,9.85,-9.05,-12.35,0,*41
1501614138.52,17264,26.63,75000.5,9.85,-9.49,-12.39,0,*42
1501614139.77,17265,26.63,74998.3,9.85,-10.27,-12.65,0,*7A
1501614141.02,17266,26.63,75002.8,9.87,-11.07,-12.35,0,*7D
1501614142.26,17267,26.63,74998.8,9.87,-11.93,-12.47,0,*74
1501614143.53,17268,26.63,74996.0,9.85,-12.65,-12.53,0,*76
1501614144.81,17269,26.63,74996.5,9.85,-13.29,-12.53,0,*7E
1501614146.01,17270,26.63,75000.5,9.87,-13.51,-12.39,0,*77
1501614147.24,17271,26.63,75002.8,9.85,-13.65,-12.25,0,*7E
1501614148.49,17272,26.63,75002.5,9.87,-13.61,-12.07,0,*7B
1501614149.74,17273,26.63,75000.8,9.85,-13.69,-12.07,0,*70
1501614150.96,17274,26.63,75006.0,9.87,-13.47,-11.51,0,*79
1501614152.18,17275,26.63,75000.0,9.85,-13.07,-11.01,0,*7B
1501614153.43,17276,26.63,74998.3,9.85,-12.57,-10.31,0,*7E
1501614154.7,17277,26.63,74996.3,9.85,-12.07,-9.57,0,*42
1501614155.91,17278,26.63,74996.5,9.85,-11.15,-8.41,0,*4B
1501614157.16,17279,26.63,74998.0,9.85,-10.31,-7.57,0,*45
1501614158.37,17280,26.63,74996.3,9.83,-9.61,-6.81,0,*72
1501614159.61,17281,26.63,75000.0,9.85,-8.55,-5.73,0,*7D
1501614160.88,17282,26.63,75000.8,9.85,-7.61,-4.85,0,*7E
1501614162.08,17283,26.63,75002.5,9.87,-6.59,-3.71,0,*7B
1501614163.29,17284,26.63,75000.5,9.85,-6.31,-3.15,0,*72
1501614164.53,17285,26.63,74998.3,9.85,-5.77,-2.43,0,*70
1501614165.74,17286,26.63,75000.5,9.87,-5.73,-2.39,0,*78
1501614166.97,17287,26.63,75000.8,9.85,-5.89,-2.79,0,*7A
1501614168.2,17288,26.63,74996.5,9.85,-6.01,-3.55,0,*79
1501614169.44,17289,26.63,75004.5,9.85,-6.31,-4.73,0,*78
1501614170.65,17290,26.63,75002.5,9.85,-6.77,-6.43,0,*73
1501614171.87,17291,26.56,74996.5,9.85,-7.19,-8.17,0,*74
1501614173.06,17292,26.63,75002.8,9.87,-7.83,-9.75,0,*73
1501614174.3,17293,26.63,75002.5,9.85,-8.81,-11.41,0,*43
1501614175.54,17294,26.63,75002.3,9.87,-9.45,-12.61,0,*4E
1501614176.76,17295,26.63,75002.5,9.85,-10.15,-13.43,0,*71
1501614178.04,17296,26.56,75000.8,9.85,-10.75,-14.05,0,*71
1501614179.26,17297,26.63,74996.8,9.85,-11.11,-14.29,0,*7D
1501614180.48,17298,26.56,74996.3,9.87,-11.37,-14.33,0,*7F
1501614181.73,17299,26.56,74992.3,9.85,-11.55,-14.37,0,*7C
1501614182.98,17300,26.56,74994.5,9.85,-11.23,-14.01,0,*79
1501614184.24,17301,26.63,74992.0,9.85,-10.75,-13.79,0,*72
1501614185.47,17302,26.63,74992.5,9.87,-10.41,-13.15,0,*7E
1501614186.68,17303,26.56,74990.0,9.87,-9.53,-12.93,0,*4B
1501614187.91,17304,26.56,74990.8,9.87,-9.57,-13.79,0,*4D
1501614189.12,17305,26.56,74994.3,9.87,-10.49,-15.49,0,*7E
1501614190.37,17306,26.56,74992.0,9.89,-11.07,-15.63,0,*70
1501614191.6,17307,26.56,74994.8,9.85,-11.41,-15.71,0,*7C
1501614192.83,17308,26.56,74996.0,9.89,-11.45,-15.63,0,*78
1501614194.05,17309,26.63,74998.8,9.87,-11.51,-15.67,0,*76
1501614195.28,17310,26.56,74994.0,9.87,-11.37,-15.53,0,*79
1501614196.5,17311,26.56,74998.3,9.87,-11.51,-15.67,0,*7F
1501614197.75,17312,26.63,75002.3,9.85,-11.85,-15.99,0,*76
1501614199.0,17313,26.56,75002.8,9.87,-11.89,-16.13,0,*78
1501614200.23,17314,26.56,74998.0,9.87,-12.35,-16.41,0,*7C
1501614201.5,17315,26.56,74996.0,9.89,-12.71,-16.51,0,*72
1501614202.7,17316,26.63,74996.8,9.87,-13.07,-16.83,0,*70
1501614203.92,17317,26.56,74992.3,9.87,-13.15,-16.65,0,*7A
1501614205.14,17318,26.56,74992.5,9.87,-13.43,-16.69,0,*7A
1501614206.37,17319,26.56,74992.5,9.87,-13.87,-16.93,0,*76
1501614207.6,17320,26.56,74994.0,9.87,-14.19,-17.03,0,*74
1501614208.83,17321,26.56,74994.8,9.87,-14.37,-17.03,0,*79
1501614210.04,17322,26.56,74990.5,9.87,-15.01,-17.31,0,*7F
1501614211.29,17323,26.56,74994.0,9.85,-15.29,-17.45,0,*75
1501614212.52,17324,26.56,74990.5,9.87,-15.75,-17.45,0,*79
1501614213.71,17325,26.56,74994.5,9.87,-15.95,-17.31,0,*75
1501614214.97,17326,26.56,74990.5,9.85,-16.17,-17.35,0,*79
1501614216.22,17327,26.56,74998.5,9.85,-16.27,-17.35,0,*7B
1501614217.44,17328,26.56,74994.8,9.85,-16.45,-17.49,0,*7B
1501614218.72,17329,26.56,74992.3,9.85,-16.69,-17.59,0,*75
1501614219.97,17330,26.56,74996.5,9.85,-16.89,-17.63,0,*7A
1501614221.19,17331,26.56,74996.0,9.85,-16.89,-17.73,0,*7A
1501614222.41,17332,26.63,74994.3,9.85,-16.97,-17.73,0,*76
1501614223.66,17333,26.56,74992.5,9.85,-17.03,-17.87,0,*70
1501614224.9,17334,26.56,74990.5,9.85,-16.97,-17.93,0,*7E
1501614226.12,17335,26.56,74992.0,9.85,-16.97,-17.73,0,*71
1501614227.37,17336,26.56,74986.5,9.85,-16.97,-17.63,0,*73
1501614228.64,17337,26.56,74978.3,9.85,-17.03,-17.79,0,*75
1501614229.87,17338,26.56,74988.3,9.83,-17.03,-17.87,0,*7D
1501614231.1,17339,26.56,74986.0,9.83,-16.75,-17.63,0,*76
1501614232.32,17340,26.56,74982.5,9.83,-16.69,-17.73,0,*74
1501614233.55,17341,26.56,74978.8,9.83,-16.69,-17.73,0,*75
1501614234.77,17342,26.56,74982.5,9.83,-16.83,-17.93,0,*7C
1501614236.0,17343,26.63,74988.3,9.83,-16.75,-17.97,0,*70
1501614237.23,17344,26.56,74990.3,9.83,-16.69,-18.11,0,*7B
1501614238.44,17345,26.56,74982.8,9.83,-16.89,-18.11,0,*74
1501614239.66,17346,26.56,74984.5,9.85,-16.89,-18.21,0,*72
1501614240.86,17347,26.56,74982.8,9.83,-16.97,-18.11,0,*79
1501614242.14,17348,26.56,74982.3,9.81,-17.07,-18.01,0,*7D
1501614243.39,17349,26.56,74992.3,9.83,-17.03,-17.97,0,*7A
1501614244.64,17350,26.56,74986.8,9.81,-17.21,-18.17,0,*77
1501614245.83,17351,26.56,74992.3,9.83,-17.31,-18.21,0,*70
1501614247.05,17352,26.56,74992.3,9.81,-17.35,-18.25,0,*71
1501614248.33,17353,26.56,74996.5,9.81,-17.07,-17.97,0,*77
1501614249.6,17354,26.56,74994.5,9.81,-17.11,-18.01,0,*77
1501614250.85,17355,26.56,74990.3,9.81,-17.11,-17.83,0,*73
1501614252.13,17356,26.56,74984.8,9.81,-17.25,-18.01,0,*72
1501614253.38,17357,26.56,74994.5,9.81,-17.07,-17.69,0,*72
1501614254.6,17358,26.56,74988.0,9.81,-16.79,-17.69,0,*75
1501614255.85,17359,26.56,74986.3,9.81,-16.89,-17.93,0,*7E
1501614257.08,17360,26.56,74976.8,9.81,-16.79,-17.83,0,*7A
1501614258.33,17361,26.56,74986.5,9.81,-16.75,-17.79,0,*72
1501614259.56,17362,26.56,74984.5,9.83,-16.69,-17.87,0,*7F
1501614260.83,17363,26.56,74982.3,9.81,-16.51,-17.79,0,*76
1501614262.08,17364,26.56,74980.5,9.81,-16.37,-17.79,0,*71
1501614263.35,17365,26.56,74982.5,9.81,-16.23,-17.79,0,*75
1501614264.57,17366,26.56,74984.0,9.81,-16.37,-17.69,0,*72
1501614265.78,17367,26.56,74980.8,9.83,-16.59,-17.87,0,*79
1501614267.05,17368,26.56,74988.5,9.81,-16.51,-17.79,0,*7D
1501614268.33,17369,26.56,74982.0,9.81,-16.65,-17.79,0,*7B
1501614269.55,17370,26.56,74982.3,9.83,-16.69,-17.73,0,*77
1501614270.78,17371,26.56,74988.0,9.81,-16.79,-17.69,0,*7E
1501614271.99,17372,26.56,74984.5,9.83,-16.31,-16.89,0,*7C
1501614273.22,17373,26.56,74982.8,9.81,-15.63,-16.75,0,*78
1501614274.49,17374,26.56,74986.0,9.81,-15.57,-17.11,0,*7B
1501614275.74,17375,26.56,74984.5,9.81,-16.37,-17.63,0,*7A
1501614276.99,17376,26.56,74980.3,9.81,-16.93,-17.63,0,*77
1501614278.26,17377,26.56,74982.3,9.81,-17.07,-17.55,0,*7F
1501614279.53,17378,26.56,74986.3,9.81,-17.11,-17.55,0,*77
1501614280.8,17379,26.56,74986.8,9.81,-17.25,-17.55,0,*71
1501614282.07,17380,26.56,74986.3,9.81,-17.11,-17.25,0,*77
1501614283.36,17381,26.56,74988.8,9.81,-17.21,-17.07,0,*75
1501614284.59,17382,26.56,74990.3,9.81,-17.35,-17.35,0,*72
1501614285.86,17383,26.56,74980.8,9.81,-17.11,-17.21,0,*70
1501614287.13,17384,26.56,74980.3,9.81,-17.11,-17.41,0,*71
1501614288.4,17385,26.56,74982.8,9.81,-17.11,-17.63,0,*70
1501614289.67,17386,26.56,74976.5,9.81,-17.21,-17.79,0,*7B
1501614290.92,17387,26.56,74982.0,9.79,-17.21,-17.93,0,*79
1501614292.2,17388,26.56,74982.5,9.81,-17.21,-17.79,0,*75
1501614293.42,17389,26.56,74978.3,9.79,-17.07,-17.69,0,*76
1501614294.65,17390,26.56,74980.3,9.79,-17.03,-17.69,0,*7A
1501614295.9,17391,26.56,74976.5,9.81,-16.89,-17.79,0,*7E
1501614297.17,17392,26.56,74974.3,9.81,-16.51,-17.55,0,*76
1501614298.4,17393,26.56,74980.0,9.81,-15.75,-17.35,0,*74
1501614299.66,17394,26.56,74982.3,9.79,-14.75,-17.07,0,*74
1501614300.85,17395,26.56,74986.0,9.79,-13.47,-16.45,0,*74
1501614302.07,17396,26.56,74980.5,9.79,-12.39,-15.57,0,*7F
1501614303.33,17397,26.56,74984.0,9.79,-11.29,-14.75,0,*7D
1501614304.53,17398,26.56,74982.8,9.79,-11.15,-14.89,0,*7E
1501614305.79,17399,26.56,74986.5,9.79,-11.07,-15.43,0,*7B
1501614307.01,17400,26.56,74978.8,9.79,-12.47,-16.65,0,*7C
1501614308.24,17401,26.56,74978.0,9.79,-13.69,-17.41,0,*77
1501614309.49,17402,26.56,74976.5,9.79,-14.55,-17.63,0,*7C
1501614310.74,17403,26.56,74980.5,9.81,-15.35,-17.69,0,*77
1501614311.98,17404,26.56,74984.5,9.81,-15.71,-17.25,0,*78
1501614313.25,17405,26.56,74984.5,9.81,-16.31,-17.41,0,*7C
1501614314.5,17406,26.56,74986.8,9.81,-16.51,-17.49,0,*71
1501614315.75,17407,26.56,74994.0,9.81,-16.51,-17.35,0,*7B
1501614316.99,17408,26.56,74994.3,9.81,-16.93,-17.63,0,*79
1501614318.24,17409,26.56,74996.5,9.81,-16.89,-17.55,0,*76
1501614319.47,17410,26.56,74992.5,9.83,-16.89,-17.59,0,*70
1501614320.67,17411,26.56,74996.8,9.83,-16.83,-17.49,0,*7A
1501614321.92,17412,26.56,74994.8,9.81,-17.07,-17.69,0,*74
1501614323.15,17413,26.56,74984.0,9.83,-17.17,-17.73,0,*7D
1501614324.4,17414,26.56,74994.3,9.81,-17.03,-17.69,0,*76
1501614325.67,17415,26.56,74996.3,9.81,-17.03,-17.55,0,*78
1501614326.9,17416,26.56,74992.0,9.83,-17.03,-17.73,0,*7D
1501614328.13,17417,26.56,74992.3,9.83,-17.17,-17.87,0,*72
1501614329.36,17418,26.56,74996.0,9.81,-17.35,-18.11,0,*7F
1501614330.64,17419,26.56,74994.0,9.81,-17.41,-18.01,0,*7C
1501614331.89,17420,26.56,74994.3,9.83,-17.21,-17.93,0,*76
1501614333.14,17421,26.56,74994.8,9.81,-17.03,-17.69,0,*70
1501614334.36,17422,26.56,74998.0,9.83,-17.07,-17.73,0,*7E
1501614335.61,17423,26.56,74994.8,9.81,-17.11,-17.73,0,*7A
1501614336.88,17424,26.56,74994.8,9.81,-17.07,-17.63,0,*7B
1501614338.13,17425,26.56,74994.8,9.81,-16.89,-17.41,0,*7D
1501614339.38,17426,26.56,74996.0,9.81,-16.79,-17.21,0,*77
1501614340.63,17427,26.56,74996.5,9.81,-16.75,-17.11,0,*79
1501614341.87,17428,26.56,74996.0,9.83,-16.55,-17.07,0,*71
1501614343.14,17429,26.56,74996.8,9.81,-16.51,-17.21,0,*72
1501614344.42,17430,26.56,74992.8,9.81,-16.65,-17.21,0,*7D
1501614345.65,17431,26.56,74988.8,9.83,-16.17,-16.83,0,*72
1501614346.89,17432,26.56,74994.0,9.81,-15.63,-16.65,0,*7B
1501614348.14,17433,26.56,74996.5,9.81,-15.71,-17.11,0,*7B
1501614349.41,17434,26.56,74990.3,9.81,-15.57,-17.25,0,*7F
1501614350.65,17435,26.56,74990.0,9.81,-15.49,-17.25,0,*71
1501614351.9,17436,26.56,74992.5,9.81,-15.15,-17.03,0,*7F
1501614353.13,17437,26.56,74996.8,9.81,-14.29,-16.37,0,*76
1501614354.33,17438,26.56,75000.5,9.83,-13.55,-15.99,0,*70
1501614355.55,17439,26.56,74992.3,9.81,-12.89,-15.71,0,*75
1501614356.8,17440,26.56,74994.8,9.79,-11.73,-14.83,0,*76
1501614358.03,17441,26.56,74990.0,9.79,-10.75,-14.29,0,*70
1501614359.21,17442,26.56,74988.5,9.79,-9.75,-13.47,0,*44
1501614360.44,17443,26.56,74988.5,9.79,-8.89,-12.83,0,*4E
1501614361.66,17444,26.56,75000.5,9.79,-7.99,-12.25,0,*4B
1501614362.9,17445,26.56,75002.5,9.81,-7.23,-11.73,0,*4C
1501614364.14,17446,26.56,74998.0,9.81,-6.59,-11.33,0,*47
1501614365.39,17447,26.56,74992.5,9.81,-6.19,-10.93,0,*49
1501614366.66,17448,26.56,74988.8,9.81,-5.81,-10.63,0,*4B
1501614367.91,17449,26.56,74996.8,9.83,-5.77,-10.63,0,*41
1501614369.15,17450,26.56,74998.5,9.81,-5.81,-10.49,0,*4A
1501614370.38,17451,26.56,74996.0,9.83,-5.85,-10.27,0,*45
1501614371.59,17452,26.56,74996.8,9.83,-5.97,-10.15,0,*44
1501614372.8,17453,26.56,75004.3,9.83,-5.89,-9.75,0,*74
1501614374.05,17454,26.56,74988.0,9.83,-5.85,-9.49,0,*70
1501614375.29,17455,26.56,74998.0,9.83,-5.77,-9.45,0,*70
1501614376.55,17456,26.56,74992.5,9.81,-5.89,-9.41,0,*74
1501614377.79,17457,26.56,75000.0,9.83,-5.77,-9.11,0,*73
1501614379.0,17458,26.56,74998.8,9.83,-5.93,-8.67,0,*76
1501614380.22,17459,26.56,74998.8,9.83,-5.77,-8.37,0,*78
1501614381.43,17460,26.56,74996.5,9.85,-6.09,-8.17,0,*7C
1501614382.7,17461,26.56,75002.8,9.85,-6.23,-7.73,0,*78
1501614383.91,17462,26.56,75000.0,9.85,-6.69,-7.87,0,*7E
1501614385.13,17463,26.56,75004.3,9.85,-7.19,-7.87,0,*79
1501614386.37,17464,26.5,75002.3,9.85,-8.11,-7.87,0,*79
1501614387.58,17465,26.56,75004.5,9.87,-8.59,-7.91,0,*71
1501614388.8,17466,26.56,75002.3,9.85,-8.41,-7.15,0,*75
1501614390.03,17467,26.56,74996.0,9.85,-7.01,-5.35,0,*7F
1501614391.27,17468,26.5,74996.3,9.85,-5.23,-3.95,0,*7E
1501614392.49,17469,26.5,74998.5,9.85,-3.83,-2.15,0,*7A
1501614393.68,17470,26.56,74998.0,9.87,-3.27,-1.59,0,*75
1501614394.92,17471,26.56,74994.5,9.87,-3.47,-1.95,0,*72
1501614396.16,17472,26.5,74998.5,9.87,-3.63,-2.47,0,*7B
1501614397.37,17473,26.56,75000.5,9.87,-2.75,-2.27,0,*7A
1501614398.57,17474,26.56,74998.3,9.87,-2.95,-3.11,0,*77
1501614399.77,17475,26.56,74994.3,9.87,-2.87,-3.63,0,*70
1501614400.97,17476,26.56,74996.8,9.87,-3.35,-4.65,0,*7A
1501614402.22,17477,26.56,74998.0,9.87,-4.01,-5.19,0,*71
1501614403.44,17478,26.56,75000.3,9.87,-4.17,-5.27,0,*74
1501614404.67,17479,26.56,75000.8,9.87,-4.69,-5.27,0,*7C
1501614405.89,17480,26.56,74998.0,9.87,-5.55,-5.81,0,*78
1501614407.14,17481,26.56,75002.3,9.89,-6.35,-6.19,0,*70
1501614408.38,17482,26.5,74994.3,9.89,-6.81,-6.97,0,*7A
1501614409.65,17483,26.5,74990.8,9.89,-7.27,-7.73,0,*7D
1501614410.87,17484,26.56,74988.0,9.91,-7.73,-8.21,0,*7A
1501614412.11,17485,26.56,74990.0,9.89,-8.07,-8.89,0,*7C
1501614413.32,17486,26.56,74988.5,9.89,-7.53,-8.67,0,*71
1501614414.58,17487,26.56,74986.5,9.89,-7.27,-8.03,0,*71
1501614415.84,17488,26.56,74980.3,9.89,-7.27,-7.65,0,*71
1501614417.05,17489,26.5,74986.0,9.89,-8.67,-8.55,0,*77
1501614418.27,17490,26.56,74994.3,9.89,-10.19,-9.79,0,*40
1501614419.55,17491,26.56,74994.8,9.89,-12.15,-11.59,0,*74
1501614420.81,17492,26.56,74992.3,9.89,-13.43,-12.71,0,*7C
1501614422.05,17493,26.56,74992.5,9.89,-14.69,-13.83,0,*7E
1501614423.32,17494,26.5,74996.8,9.89,-15.35,-14.75,0,*7F
1501614424.57,17495,26.56,74994.0,9.91,-15.57,-15.01,0,*71
1501614425.76,17496,26.56,74996.8,9.87,-16.37,-15.67,0,*70
1501614427.02,17497,26.56,74994.0,9.89,-16.51,-15.71,0,*78
1501614428.3,17498,26.56,74992.0,9.89,-16.23,-15.43,0,*73
1501614429.57,17499,26.56,74998.5,9.89,-16.23,-15.35,0,*73
1501614430.82,17500,26.5,74998.5,9.89,-16.31,-15.15,0,*73
1501614432.06,17501,26.56,74998.3,9.89,-16.37,-15.29,0,*7B
1501614433.33,17502,26.56,74998.8,9.89,-16.51,-15.57,0,*71
1501614434.56,17503,26.56,74992.3,9.89,-16.59,-15.63,0,*7F
1501614435.81,17504,26.56,74996.0,9.89,-16.51,-15.67,0,*74
1501614437.06,17505,26.56,74998.5,9.87,-16.27,-15.39,0,*71
1501614438.31,17506,26.56,74994.8,9.89,-16.31,-15.15,0,*75
1501614439.52,17507,26.5,74994.5,9.87,-16.37,-15.11,0,*78
1501614440.74,17508,26.5,74994.0,9.87,-16.55,-14.93,0,*78
1501614441.97,17509,26.5,74996.5,9.87,-16.41,-14.51,0,*72
1501614443.2,17510,26.5,75000.3,9.85,-16.59,-14.37,0,*71
1501614444.43,17511,26.5,75000.5,9.87,-16.55,-14.05,0,*7F
1501614445.66,17512,26.5,75000.3,9.87,-16.83,-14.01,0,*73
1501614446.88,17513,26.5,74994.0,9.85,-16.89,-13.51,0,*78
1501614448.08,17514,26.5,74986.5,9.87,-16.83,-13.23,0,*72
1501614449.3,17515,26.5,74980.8,9.87,-16.51,-12.89,0,*7D
1501614450.54,17516,26.5,74988.3,9.87,-16.41,-12.79,0,*70
1501614451.78,17517,26.56,74990.0,9.87,-16.27,-12.65,0,*7C
1501614453.04,17518,26.5,74992.5,9.87,-16.09,-12.35,0,*7A
1501614454.28,17519,26.5,74998.8,9.87,-16.51,-12.65,0,*73
1501614455.56,17520,26.5,74996.5,9.85,-16.27,-12.57,0,*7B
1501614456.78,17521,26.5,74994.0,9.87,-16.27,-12.89,0,*7B
1501614458.05,17522,26.5,74980.0,9.85,-16.27,-13.29,0,*71
1501614459.26,17523,26.5,74992.0,9.85,-15.99,-13.43,0,*7A
1501614460.54,17524,26.5,74992.3,9.85,-16.13,-14.05,0,*79
1501614461.77,17525,26.5,74998.8,9.87,-16.09,-14.37,0,*70
1501614463.02,17526,26.56,75002.3,9.85,-15.95,-14.79,0,*7D
1501614464.3,17527,26.5,74992.3,9.85,-16.09,-15.43,0,*72
1501614465.56,17528,26.5,74984.8,9.87,-16.09,-15.89,0,*79
1501614466.79,17529,26.5,74988.5,9.85,-16.31,-16.45,0,*72
1501614468.0,17530,26.5,74996.8,9.87,-16.41,-16.55,0,*7E
1501614469.23,17531,26.5,74984.8,9.85,-16.59,-16.83,0,*7F
1501614470.48,17532,26.5,74994.0,9.85,-16.89,-17.03,0,*78
1501614471.73,17533,26.56,74996.0,9.85,-16.83,-17.03,0,*73
1501614472.93,17534,26.56,74994.3,9.87,-16.83,-16.97,0,*7A
1501614474.18,17535,26.5,74992.0,9.87,-17.03,-17.03,0,*7E
1501614475.46,17536,26.56,75002.8,9.85,-17.07,-17.21,0,*7B
1501614476.73,17537,26.5,75000.8,9.85,-17.21,-17.45,0,*7C
1501614477.93,17538,26.5,75002.3,9.83,-17.35,-17.49,0,*7C
1501614479.14,17539,26.5,75002.0,9.83,-17.35,-17.35,0,*76
1501614480.39,17540,26.5,74998.0,9.85,-17.21,-17.31,0,*7F
1501614481.64,17541,26.5,74996.3,9.83,-17.21,-17.21,0,*79
1501614482.86,17542,26.5,74998.5,9.83,-17.31,-17.21,0,*7B
1501614484.11,17543,26.5,74996.3,9.81,-17.35,-17.21,0,*7C
1501614485.4,17544,26.56,75002.0,9.81,-17.25,-17.07,0,*7E
1501614486.65,17545,26.5,74996.5,9.81,-17.35,-17.11,0,*79
1501614487.9,17546,26.5,74992.0,9.81,-17.25,-16.89,0,*7B
1501614489.12,17547,26.5,74988.5,9.83,-17.31,-16.69,0,*73
1501614490.37,17548,26.56,74992.5,9.81,-17.35,-16.65,0,*76
1501614491.62,17549,26.5,74994.5,9.81,-17.25,-16.59,0,*79
1501614492.9,17550,26.5,74990.5,9.81,-17.21,-16.31,0,*7B
1501614494.12,17551,26.5,74990.3,9.79,-17.03,-15.99,0,*7C
1501614495.35,17552,26.5,74984.5,9.79,-17.07,-16.03,0,*7B
1501614496.57,17553,26.5,74976.0,9.79,-17.21,-15.99,0,*7E
1501614497.8,17554,26.5,74974.0,9.79,-16.89,-15.85,0,*77
1501614499.03,17555,26.5,74974.3,9.79,-16.75,-15.57,0,*7A
1501614500.31,17556,26.5,74976.0,9.81,-16.65,-15.57,0,*7F
1501614501.54,17557,26.5,74982.3,9.81,-16.59,-15.49,0,*7E
1501614502.82,17558,26.5,74978.3,9.81,-16.65,-15.57,0,*71
1501614504.05,17559,26.5,74982.3,9.81,-16.89,-15.75,0,*72
1501614505.25,17560,26.5,74976.8,9.83,-16.89,-15.95,0,*74
1501614506.45,17561,26.5,74976.8,9.83,-16.59,-15.75,0,*76
1501614507.7,17562,26.5,74974.8,9.81,-16.93,-16.31,0,*72